NOAA 16 DEB, 41495

Orbit data source: Space-Track

NOAA 16 DEB, 41495 is space debris in SSO originally from a launch on Thu, 21 Sep 2000 UTC launched from the Air Force Western Test Range (AFWTR). Debris objects in space refer to the collection of defunct objects orbiting the Earth. Examples of debris include non-operational satellites, rocket bodies, and fragments generated from explosions, collisions, or faulty payload assembly.

Loading next visibility...
Identifier
41495, 2000-055LT
Orbit
SSO
Country
Flag of USUS
Related business
Manufacturer
Unknown
Mission
Spacecraft
Bus & Motor
Unknown
Mass
Unknown
Launch date (UTC)
2000-09-21 (26 years ago)
Launch vehicle
Unknown
Launch site
Air Force Western Test Range (AFWTR)
Object type
Payload
Rocket body
Debris
Shape & HBR
Unknown shape, 0.1 m
Radar Cross Section
Medium (>0.1 m² and <1 m²)

Expand to show TLE details & history
Last TLE update: 1 day ago

TLE from 1 day ago
0 NOAA 16 DEB
1 41495U 00055LT  26262.82122900  .00001607  00000-0  81035-3 0  9999
2 41495  98.6773 268.3131 0035404 334.7263  25.2179 14.17382670541143
Epoch: 2026-09-19T19:42Z
TLE epoch observation values (Epoch: 2026-09-19T19:42:34.185Z)
Latitude
-0.00002°
Longitude
-26.0536°
Altitude
814.041 km
Speed
7.458 km/s
True Right ascension
17h 53m 15s
True Declination
0° 00' 00"
Sunlit
Object was in daylight at epoch
Visualization orbit readout
Latitude
Unknown
Longitude
Unknown
Altitude
Unknown
Speed
Unknown
Apparent Right ascension
Unknown
Apparent Declination
Unknown
Sunlit
N/A
Visualization observer readout
Local Sidereal Time
15:01:18
Azimuth
Unknown
Elevation
Unknown
Doppler factor
Unknown
Orbital elements
Apogee altitude
856.903 km
Perigee altitude
805.854 km
Semi-major axis
7,209.516 km
Eccentricity
0.00354
Inclination
98.6773°
RAAN
268.3131°
Arg. of periapsis
334.7263°
True anomaly
25.39145°
Mean anomaly
25.2179°
Eccentric anomaly
25.3046°
Mean motion
3.54555 °/min
Orbital period
101.54 mins
BSTAR
0.00081035
Loading maneuver chart data...
Computing Atmospheric mass density...

Documentation

Showing up to 5 results
|